When you browse on this site, cookies collect data to enhance your experience and personalize the content and advertising you see.
Visit our Privacy Policy to learn more. By continuing to use the site, you agree to this use of cookies and data.
  • In Spain
  • List of Countries
  • For 7 days
  • Water Temperature
  • Weather Map
  • Weather Widgets
  • user-avatar
    Login

    Hourly Weather Uige

    Today, 9 December, Monday

    Time Temperature Precipitation Wind Pressure Humidity
    00:00 +19°C° 0 mm 0 mps 690 mmHg 98%
    01:00 +19°C° 0 mm 0 mps 690 mmHg 99%
    02:00 +19°C° 0 mm 0 mps 690 mmHg 99%
    03:00 +19°C° 0 mm 0 mps 690 mmHg 98%
    04:00 +20°C° 0 mm 0 mps 690 mmHg 98%
    05:00 +20°C° 0 mm 0 mps 690 mmHg 97%
    06:00 +20°C° 0 mm 0 mps 691 mmHg 95%
    07:00 +22°C° 0 mm 1 mps 691 mmHg 94%
    08:00 +23°C° 0 mm 1 mps 691 mmHg 86%
    09:00 +25°C° 0 mm 1 mps 692 mmHg 79%
    10:00 +26°C° 0 mm 1 mps 692 mmHg 71%
    11:00 +27°C° 0 mm 2 mps 691 mmHg 65%
    12:00 +28°C° 0 mm 2 mps 691 mmHg 60%
    13:00 +30°C° 0 mm 2 mps 690 mmHg 54%
    14:00 +29°C° 0 mm 3 mps 690 mmHg 58%
    15:00 +28°C° 0 mm 3 mps 689 mmHg 62%
    16:00 +28°C° 0 mm 3 mps 689 mmHg 66%
    17:00 +26°C° 0 mm 2 mps 689 mmHg 76%
    18:00 +24°C° 0 mm 2 mps 690 mmHg 85%
    19:00 +22°C° 0 mm 1 mps 690 mmHg 95%
    20:00 +21°C° 0 mm 1 mps 690 mmHg 96%
    21:00 +21°C° 0 mm 1 mps 691 mmHg 97%
    22:00 +21°C° 0 mm 1 mps 691 mmHg 97%
    23:00 +21°C° 0 mm 1 mps 691 mmHg 98%

    Tomorrow, 10 December, Tuesday

    Time Temperature Precipitation Wind Pressure Humidity
    00:00 +20°C° 0 mm 1 mps 690 mmHg 98%
    01:00 +18°C° 0 mm 0 mps 690 mmHg 98%
    02:00 +18°C° 0 mm 0 mps 690 mmHg 98%
    03:00 +18°C° 0 mm 0 mps 690 mmHg 98%
    04:00 +18°C° 0 mm 0 mps 690 mmHg 98%
    05:00 +18°C° 0 mm 0 mps 690 mmHg 97%
    06:00 +19°C° 0 mm 0 mps 691 mmHg 95%
    07:00 +19°C° 0 mm 0 mps 691 mmHg 94%
    08:00 +21°C° 0 mm 0 mps 691 mmHg 87%
    09:00 +24°C° 0 mm 1 mps 692 mmHg 79%
    10:00 +25°C° 0 mm 1 mps 692 mmHg 72%
    11:00 +27°C° 0 mm 1 mps 692 mmHg 66%
    12:00 +28°C° 0 mm 1 mps 691 mmHg 61%
    13:00 +29°C° 0 mm 2 mps 691 mmHg 55%
    14:00 +28°C° 0 mm 2 mps 690 mmHg 58%
    15:00 +28°C° 0 mm 2 mps 690 mmHg 60%
    16:00 +28°C° 0 mm 2 mps 689 mmHg 63%
    17:00 +26°C° 0 mm 2 mps 689 mmHg 73%
    18:00 +24°C° 0 mm 1 mps 689 mmHg 83%
    19:00 +22°C° 0 mm 1 mps 689 mmHg 92%
    20:00 +19°C° 0 mm 0 mps 690 mmHg 94%
    21:00 +19°C° 0 mm 0 mps 690 mmHg 95%
    22:00 +18°C° 0 mm 0 mps 691 mmHg 97%
    23:00 +18°C° 0 mm 0 mps 691 mmHg 97%

    Day after tomorrow, 11 December, Wednesday

    Time Temperature Precipitation Wind Pressure Humidity
    00:00 +18°C° 0 mm 0 mps 691 mmHg 97%
    01:00 +18°C° 0 mm 0 mps 690 mmHg 98%
    02:00 +18°C° 0 mm 0 mps 690 mmHg 98%
    03:00 +17°C° 0 mm 0 mps 690 mmHg 98%
    04:00 +17°C° 0 mm 0 mps 689 mmHg 99%
    05:00 +18°C° 0 mm 0 mps 690 mmHg 97%
    06:00 +20°C° 0 mm 1 mps 690 mmHg 95%
    07:00 +21°C° 0 mm 1 mps 691 mmHg 92%
    08:00 +24°C° 0 mm 1 mps 691 mmHg 82%
    09:00 +26°C° 0 mm 1 mps 692 mmHg 71%
    10:00 +29°C° 0 mm 1 mps 692 mmHg 60%
    11:00 +30°C° 0 mm 1 mps 692 mmHg 56%
    12:00 +31°C° 0 mm 1 mps 691 mmHg 51%
    13:00 +31°C° 0 mm 1 mps 691 mmHg 47%
    14:00 +30°C° 0.1 mm 2 mps 690 mmHg 52%
    15:00 +30°C° 0.1 mm 2 mps 689 mmHg 57%
    16:00 +29°C° 0.1 mm 2 mps 689 mmHg 63%
    17:00 +27°C° 0.1 mm 2 mps 689 mmHg 70%
    18:00 +25°C° 0.1 mm 1 mps 689 mmHg 77%
    19:00 +23°C° 0.1 mm 1 mps 690 mmHg 84%
    20:00 +20°C° 0 mm 0 mps 690 mmHg 85%
    21:00 +20°C° 0 mm 0 mps 691 mmHg 86%
    22:00 +20°C° 0 mm 0 mps 691 mmHg 86%
    23:00 +20°C° 0 mm 0 mps 691 mmHg 88%

    12 December, Thursday

    Time Temperature Precipitation Wind Pressure Humidity
    00:00 +19°C° 0 mm 0 mps 691 mmHg 89%
    01:00 +19°C° 0 mm 0 mps 691 mmHg 90%
    02:00 +19°C° 0 mm 0 mps 691 mmHg 92%
    03:00 +18°C° 0 mm 0 mps 690 mmHg 94%
    04:00 +18°C° 0 mm 0 mps 690 mmHg 96%
    05:00 +19°C° 0 mm 0 mps 691 mmHg 94%
    06:00 +19°C° 0 mm 0 mps 691 mmHg 91%
    07:00 +20°C° 0 mm 0 mps 692 mmHg 89%
    08:00 +22°C° 0.2 mm 0 mps 692 mmHg 82%
    09:00 +24°C° 0.2 mm 0 mps 692 mmHg 75%
    10:00 +26°C° 0.2 mm 0 mps 693 mmHg 68%
    11:00 +27°C° 0.3 mm 0 mps 692 mmHg 64%
    12:00 +29°C° 0.3 mm 1 mps 692 mmHg 61%
    13:00 +30°C° 0.3 mm 1 mps 691 mmHg 58%
    14:00 +29°C° 0.7 mm 1 mps 690 mmHg 67%
    15:00 +27°C° 0.7 mm 1 mps 690 mmHg 76%
    16:00 +26°C° 0.7 mm 1 mps 689 mmHg 86%
    17:00 +25°C° 0.3 mm 1 mps 689 mmHg 88%
    18:00 +23°C° 0.3 mm 1 mps 690 mmHg 91%
    19:00 +20°C° 0.3 mm 0 mps 690 mmHg 93%
    20:00 +20°C° 0 mm 0 mps 690 mmHg 93%
    21:00 +19°C° 0 mm 0 mps 691 mmHg 94%
    22:00 +19°C° 0 mm 0 mps 691 mmHg 94%
    23:00 +19°C° 0 mm 0 mps 691 mmHg 95%

    13 December, Friday

    Time Temperature Precipitation Wind Pressure Humidity
    00:00 +19°C° 0 mm 0 mps 690 mmHg 95%
    01:00 +18°C° 0 mm 0 mps 690 mmHg 96%
    02:00 +18°C° 0 mm 0 mps 690 mmHg 97%
    03:00 +18°C° 0 mm 0 mps 690 mmHg 97%
    04:00 +18°C° 0 mm 0 mps 690 mmHg 97%
    05:00 +19°C° 0 mm 0 mps 690 mmHg 96%
    06:00 +19°C° 0 mm 0 mps 691 mmHg 95%
    07:00 +19°C° 0 mm 0 mps 691 mmHg 95%
    08:00 +21°C° 0 mm 0 mps 692 mmHg 87%
    09:00 +23°C° 0 mm 0 mps 692 mmHg 79%
    10:00 +24°C° 0 mm 0 mps 692 mmHg 70%
    11:00 +24°C° 0 mm 0 mps 692 mmHg 71%
    12:00 +24°C° 0 mm 0 mps 691 mmHg 72%
    13:00 +24°C° 0 mm 0 mps 690 mmHg 73%
    14:00 +24°C° 0.1 mm 0 mps 690 mmHg 71%
    15:00 +27°C° 0.1 mm 1 mps 689 mmHg 69%
    16:00 +27°C° 0.1 mm 1 mps 689 mmHg 67%
    17:00 +24°C° 0.1 mm 0 mps 689 mmHg 70%
    18:00 +23°C° 0.1 mm 0 mps 689 mmHg 74%
    19:00 +21°C° 0.1 mm 0 mps 690 mmHg 78%
    20:00 +20°C° 0 mm 0 mps 690 mmHg 80%
    21:00 +20°C° 0 mm 0 mps 690 mmHg 81%
    22:00 +19°C° 0 mm 0 mps 691 mmHg 83%
    23:00 +19°C° 0 mm 0 mps 691 mmHg 84%

    14 December, Saturday

    Time Temperature Precipitation Wind Pressure Humidity
    00:00 +18°C° 0 mm 0 mps 690 mmHg 85%
    01:00 +18°C° 0 mm 0 mps 690 mmHg 86%
    02:00 +18°C° 0 mm 0 mps 690 mmHg 85%
    03:00 +18°C° 0 mm 0 mps 690 mmHg 83%
    04:00 +18°C° 0 mm 0 mps 690 mmHg 82%
    05:00 +18°C° 0 mm 0 mps 690 mmHg 81%
    06:00 +21°C° 0 mm 1 mps 691 mmHg 80%
    07:00 +22°C° 0 mm 1 mps 691 mmHg 79%
    08:00 +22°C° 0 mm 0 mps 692 mmHg 72%
    09:00 +25°C° 0 mm 0 mps 692 mmHg 65%
    10:00 +28°C° 0 mm 0 mps 693 mmHg 58%
    11:00 +30°C° 0.4 mm 1 mps 692 mmHg 58%
    12:00 +30°C° 0.4 mm 1 mps 691 mmHg 58%
    13:00 +30°C° 0.4 mm 2 mps 690 mmHg 58%
    14:00 +29°C° 0.7 mm 2 mps 690 mmHg 64%
    15:00 +29°C° 0.7 mm 2 mps 689 mmHg 69%
    16:00 +28°C° 0.7 mm 2 mps 688 mmHg 75%
    17:00 +26°C° 0.2 mm 1 mps 689 mmHg 80%
    18:00 +24°C° 0.2 mm 1 mps 689 mmHg 85%
    19:00 +21°C° 0.2 mm 0 mps 689 mmHg 90%
    20:00 +20°C° 0 mm 0 mps 690 mmHg 91%
    21:00 +20°C° 0 mm 0 mps 690 mmHg 91%
    22:00 +20°C° 0 mm 0 mps 691 mmHg 91%
    23:00 +20°C° 0.1 mm 0 mps 691 mmHg 92%
    Show more